Airfield :
LOGIN :

Register | Disclaimer

   EN    FR    IT 

 










Legend :    VFR   Marginal VFR   IFR   Intensive IFR   Very Intensive IFR
Visi :
Ceiling :
>= 8 km
>= 3000ft
5 to 8 km
1000 to 3000 ft
1500m to 5 km
500 to 1000 ft
800 to 1500m
200 to 500 ft
< 800m
< 200 ft
Symbols :   Thunderstorms  Fog  Heavy snow  Heavy precipitations  Wind > 20 kt
SIGMETs :     Misc.  Thunderstorms  Icing  Turbulence  Mountain Waves  Volcanic Ashes







- Airport Elevation : 56 ft
- IATA code : BZR
- Download approach charts


LFMU - Beziers / Vias

CURRENT METAR :
  • 182300Z AUTO 30003KT CAVOK 04/01 Q1021

EXPIRED METARs :
  • 182230Z AUTO 29004KT CAVOK 04/01 Q1021
  • 182200Z AUTO 21002KT CAVOK 05/02 Q1021
  • 182130Z AUTO 26004KT CAVOK 05/02 Q1021
  • 182100Z AUTO 26005KT CAVOK 04/01 Q1021
  • 182030Z AUTO 22004KT CAVOK 06/02 Q1021

TAF TAF LFMU
Valid from the 18 at 15:00 until the 19 at 15:00 UTC


181400Z 1815/1915 31010KT CAVOK
TEMPO 1906/1911 29015G25KT
ATIS : +33 4 67 90 88 88
No reported NOTAMs for that airfield.



MET'MAP, your aeronautical weather chart ! - Copyright ORBIFLY December 2007 - Disclaimer

ORBIFLY MET'MAP TEAM :

Programming & Development : Alexandra Zaïnal
Concept & Development : Baudouin d'Aumeries
Co-Development & Prog : Marc-Olivier Méhu
Technical & hardware support : Manuel Goepfert

Contact : metmap@orbifly.com




SOURCES & CREDITS :

   NOAA